星链-5312 (STARLINK-5312 )

导读

STARLINK-5312是美国太空探索技术公司(SpaceX)星链(Starlink)卫星互联网星座的一颗卫星,于北京时间2023年1月19日8时发射升空,属于星链第二代组网卫星。星链项目旨在构建覆盖全球的低轨卫星互联网,该卫星入轨后为全球偏远地区、海上与空中用户提供宽带互联网接入服务,属于美国低轨巨型星座部署的组成部分。

基本信息
目录编号:
55311
目录名称:
STARLINK-5312
国际标识:
2023-010AU
轨道中心:
EARTH
卫星名称:
星链-5312
卫星全名:
星链-5312 (STARLINK-5312 )
卫星状态:
在轨 (已飞行1243 天)
发射日期:
2023-01-19 UTC
国别 :
美国 (US)
星等 :
--
轨道信息
数据来源 国际轨道数据 AOE轨道数据
星历时间 2026-06-15T06:03:54+0800
7小时前
查看轨道信息
2026-06-12T05:00:00+0800
3天前
查看轨道信息
半长轴 6950.19km 6950.187km
偏心率 0.0002743 0.0002887
轨道倾角 70.000° 70.000°
近地点辐角 267.479° 271.254°
升交点赤经 119.414° 127.088°
平近点角 92.605° 232.143°
近地点 570.146km 570.043km
远地点 573.96km 574.057km
周期 96.107分钟 96.107分钟
每日圈数 14.98331 14.983321
详细信息
固有亮度:
5
最大亮度:
2.5
卫星平台:
Starlink v1.5
覆盖范围:
全球
运营商:
太空探索技术公司
运营商所在国:
美国
制造商(研发单位):
太空探索技术公司
制造商所在国:
美国
使用方式:
暂无
卫星简介
星链(Starlink)计划是由太空探索技术公司(SpaceX)提出的一个巨型低轨卫星互联网星座项目,计划在2019年至2024年间在太空搭建由约1.2万颗卫星组成的“星链”网络,其中1584颗将部署在地球上空550千米处的近地轨道,并从2020年开始工作。该卫星仍在工作。
2D轨道图
3D轨道图
轨道高度分析图
轨道倾角分析图
轨道综合分析图
查看轨道综合分析图